sat.trackr.live / text

‹ back to catalog

STARLINK-31185

NORAD 58788 · 2024-012B

PAYLOAD ACTIVE UNKNOWN

§ Identity

Operator
Country
US
Launch date
2024-01-15
Launch site
AFETR
Launch vehicle
Mass (kg)
RCS (m²)

Purposes: comms

External: N2YO · Heavens-Above · Gunter

§ Orbital elements

Epoch: 2026-05-24T22:39:00.945216Z

Period
94.27 min
Inclination
43.0031°
Eccentricity
0.0001153
Mean motion
15.27571553 rev/d
Perigee alt
482.3 km
Apogee alt
483.9 km
Semi-major
6,861.2 km
B*
-9.3972e-5
RAAN
94.9865°
Arg perigee
260.7960°
Mean anomaly
99.2761°
Rev number
13,289

§ Raw data

STARLINK-311851 58788U 24012B   26144.94376094 -.00002846  00000+0 -93972-4 0  99992 58788  43.0031  94.9865 0001153 260.7960  99.2761 15.27571553132898

JSON: /api/v1/satellites/58788 · /tle

For live sub-satellite position, see the globe view (requires WebGL).

§ Visibility from observer

Set your observer location to see the next 7 days of passes ≥ 10°. The values pass through the URL so the page stays shareable.

No JS? Fill the form by hand. The geolocation button needs JavaScript.